Wetbulb
57.88 58.15 58.62 58.59 58.45 58.50 58.77 58.70 58.83 58.85 58.92 59.06 59.38 59.33 58.93 59.03 59.15 61.56 58.43 62.84 64.24 66.39 64.27 58.26 58.02 57.84 58.14 56.85 57.00 56.30 52.39 51.72 49.72 50.30 51.71 59.69 57.58 61.53 62.25 61.46 66.36 67.50 67.90 70.47 72.55
57.66 58.30 58.57 58.50 58.54 58.42 58.34 58.43 58.50 58.76 58.82 58.95 59.21 58.87 58.64 59.27 62.12 59.22 62.80 67.08 67.24 65.85 56.51 55.70 56.27 57.22 56.11 54.93 55.10 53.25 52.93 50.60 52.68 52.79 52.22 60.29 61.79 62.44 61.35 62.73 64.41 65.03 69.13 70.89 71.99
57.91 58.24 58.39 58.44 58.46 57.95 57.97 58.04 58.30 58.60 58.76 58.89 58.90 58.48 58.65 60.20 60.68 55.67 66.38 68.10 67.54 64.85 56.90 57.88 58.05 57.31 54.01 54.47 53.60 53.22 52.43 52.86 53.42 55.43 53.73 56.91 62.03 65.34 62.87 62.68 64.86 63.66 67.43 70.05 71.23
57.54 57.78 58.27 58.06 58.09 57.79 57.65 57.76 57.96 58.06 58.55 58.28 57.97 58.13 58.67 62.61 50.99 59.39 68.73 68.62 68.28 60.03 57.60 57.93 56.93 54.39 53.47 52.43 54.00 51.56 53.47 53.66 58.45 60.76 59.61 61.35 63.52 64.37 65.39 65.28 67.91 68.87 69.82 70.09 70.75
57.48 57.81 57.91 57.71 57.53 57.49 57.18 57.42 57.73 57.89 57.94 57.56 57.84 58.04 61.47 58.61 56.73 65.02 67.50 65.51 59.20 57.31 57.13 57.21 55.49 54.76 52.61 53.49 53.55 52.45 53.01 53.94 62.22 63.13 63.41 64.78 64.86 65.66 66.24 69.20 70.73 70.80 70.67 70.21 70.46
57.22 57.39 57.45 57.44 57.12 57.02 56.86 56.77 56.86 56.90 57.15 57.83 58.00 57.88 60.10 54.28 62.41 64.24 60.14 58.49 58.16 57.60 57.91 58.04 56.27 56.48 54.51 53.79 53.12 53.55 55.90 55.90 62.27 62.65 63.38 63.57 64.17 64.98 67.38 70.07 69.66 69.81 69.32 69.53 68.70
56.99 56.99 56.92 57.01 56.85 56.86 56.73 56.38 56.12 56.62 58.15 59.12 58.39 61.19 56.70 55.80 62.48 63.43 59.80 58.52 59.27 58.88 57.23 58.30 57.77 55.71 55.57 53.37 54.52 53.60 57.38 60.61 61.69 62.23 61.77 63.38 62.56 63.68 68.22 69.40 67.75 66.54 67.85 66.29 65.72
56.89 56.60 56.59 56.82 56.83 56.81 56.59 56.32 56.44 58.32 59.05 58.88 59.12 61.75 55.69 61.12 64.31 62.04 60.55 58.95 60.46 60.27 58.86 59.29 58.77 56.80 55.58 55.30 53.35 52.52 57.70 54.23 59.44 60.83 62.09 62.59 58.60 64.43 68.19 67.69 66.46 66.73 64.32 63.35 63.51
56.99 56.56 56.42 56.65 56.59 56.34 55.65 55.49 57.55 60.46 59.55 59.72 62.74 61.02 56.91 61.82 60.58 61.25 61.59 57.92 58.87 59.02 59.22 57.22 57.68 56.19 55.12 53.15 51.62 52.18 49.88 51.48 56.20 60.78 60.93 61.57 59.83 64.50 67.18 66.85 65.72 64.00 61.20 60.38 61.03
56.90 56.29 55.95 56.16 56.27 55.70 54.59 55.78 58.64 58.98 61.35 61.99 61.78 58.09 59.41 56.84 59.28 58.75 60.56 59.49 57.41 57.39 55.98 55.92 56.34 54.68 54.62 52.93 49.76 49.63 51.02 53.89 55.00 59.57 60.80 61.13 61.29 63.72 64.81 64.54 62.96 61.34 59.31 59.72 60.01
56.85 56.07 55.65 55.73 55.47 54.42 56.70 58.83 57.53 56.49 55.99 53.76 54.84 55.54 57.13 58.87 59.84 59.32 59.52 58.31 57.77 56.33 53.51 55.16 52.97 51.91 52.78 53.41 53.06 52.64 53.56 54.96 58.65 60.93 60.54 61.25 60.85 62.01 62.84 61.89 59.73 58.82 58.20 58.73 59.22
56.51 56.23 55.99 55.54 54.82 54.35 58.18 54.89 53.43 54.93 51.55 54.46 54.24 54.66 56.77 57.86 55.15 57.18 59.07 55.15 54.88 52.91 54.15 53.15 51.64 53.64 53.57 53.69 54.44 54.80 54.13 55.19 57.12 58.91 60.49 60.44 59.05 61.72 62.86 61.25 60.45 59.98 59.15 58.51 59.61
55.78 55.56 55.68 55.18 53.92 57.61 56.35 54.06 56.27 56.38 52.64 52.75 54.40 54.46 56.30 57.13 54.72 55.28 57.51 55.60 53.80 52.98 53.33 51.67 52.60 53.61 53.48 53.79 53.51 53.95 52.48 54.67 55.17 57.62 59.65 58.72 56.44 58.53 61.90 62.93 62.05 62.18 61.77 60.74 60.63
55.54 55.27 55.31 53.73 55.03 55.48 55.91 56.43 58.19 56.70 51.84 51.14 53.00 55.77 56.15 56.69 53.89 57.87 57.87 55.63 54.26 52.15 53.09 52.88 53.78 52.57 52.51 51.31 52.65 50.33 52.81 53.50 55.45 54.31 50.97 57.73 49.89 57.10 59.43 59.69 60.75 62.20 61.37 61.03 61.02
55.39 55.44 55.11 53.92 55.01 52.47 55.45 57.33 59.04 56.84 42.89 52.02 53.15 58.55 56.00 54.22 55.12 54.66 57.59 55.84 52.75 52.81 53.78 51.34 51.78 52.34 51.95 52.92 53.74 52.04 53.48 53.96 55.09 53.31 52.72 53.34 50.48 55.95 59.37 57.84 59.80 61.24 60.89 61.54 61.85
55.34 55.32 54.16 55.38 56.35 55.21 56.53 57.75 57.56 50.14 42.70 48.78 51.53 51.42 52.21 53.53 53.51 55.05 54.89 56.85 56.23 53.58 54.72 54.18 56.77 53.73 54.09 55.18 55.44 56.11 55.54 55.42 54.90 52.88 47.85 52.07 51.09 53.28 56.71 58.03 59.29 61.65 61.74 61.30 61.45
54.93 54.87 53.68 55.79 53.87 56.79 57.23 57.04 48.29 46.86 51.90 47.36 48.46 51.14 51.64 51.11 51.44 52.58 52.31 53.33 52.52 50.24 50.88 52.86 52.64 55.35 55.11 53.71 55.63 54.51 52.91 47.88 46.27 46.65 46.89 53.58 50.67 54.53 57.80 59.29 60.12 60.49 61.30 61.66 61.95
53.52 52.21 54.42 56.20 57.91 57.10 57.36 53.29 44.05 49.24 49.61 51.60 50.39 50.82 49.30 51.15 51.58 53.04 53.30 52.16 55.32 54.39 51.70 49.32 47.61 53.19 54.95 54.02 52.38 52.43 52.20 47.49 41.16 44.51 46.85 52.76 48.16 53.86 58.31 59.83 61.03 62.46 61.62 60.90 60.53
50.99 58.09 57.67 62.05 58.89 57.30 55.60 46.74 48.39 51.14 52.05 50.42 50.08 48.44 48.39 50.28 52.32 53.19 53.20 52.62 53.80 55.54 51.85 50.04 49.60 54.87 54.98 55.33 55.22 52.86 53.05 54.13 49.34 50.30 46.25 50.52 53.36 56.61 57.83 58.24 60.06 60.64 59.92 59.32 58.96
55.59 55.84 57.50 60.26 60.48 57.11 51.84 45.15 50.34 53.69 53.10 52.71 47.56 49.53 46.88 49.49 50.86 52.05 52.07 53.98 53.45 54.98 57.43 54.55 50.07 53.52 54.18 55.60 55.98 54.77 55.36 50.19 51.06 42.80 41.05 46.73 47.54 50.65 54.25 55.60 56.75 57.83 57.55 57.29 57.41
55.35 52.27 58.83 60.71 59.20 53.62 46.73 47.70 49.07 53.69 53.87 52.23 50.26 48.76 49.69 50.37 51.46 51.39 51.40 52.39 53.41 54.17 55.78 55.34 54.01 52.19 54.34 52.90 52.46 53.52 52.98 52.23 51.91 49.35 43.23 42.31 48.37 54.35 54.36 55.48 55.41 56.01 56.72 55.85 53.78
54.39 49.21 60.29 61.27 52.30 52.98 47.70 49.01 47.52 52.51 54.98 53.94 54.67 52.41 51.63 52.83 52.01 51.86 51.51 53.27 54.85 54.02 52.75 54.43 54.18 51.16 50.99 53.68 55.12 54.88 52.26 51.78 48.05 46.68 50.61 46.98 47.55 55.75 55.72 55.91 56.06 55.75 55.37 55.06 55.67
51.94 52.62 61.05 59.31 49.14 48.70 50.48 49.68 51.84 52.92 52.76 53.18 53.20 54.64 55.86 54.39 51.51 53.32 53.00 54.79 54.71 54.88 53.80 54.54 51.98 47.83 48.61 52.23 54.24 52.48 52.81 52.79 51.94 52.24 47.47 44.35 48.28 54.70 55.36 54.86 55.14 53.98 54.62 55.17 55.39
52.08 48.73 53.58 56.69 55.42 50.65 49.23 49.64 50.52 54.17 53.00 53.33 53.69 55.81 54.92 53.01 55.39 53.37 52.15 53.96 55.90 55.52 54.63 58.57 52.85 50.34 47.31 49.31 52.80 50.19 51.05 51.82 51.21 48.90 48.50 48.58 49.72 52.53 53.84 53.36 53.92 54.03 54.41 54.79 54.94
52.29 50.59 53.54 51.37 52.48 52.43 51.07 49.80 49.37 50.80 53.76 54.54 54.36 55.11 54.53 52.12 53.35 52.78 54.15 53.88 54.77 53.64 56.42 57.13 50.80 52.29 52.11 52.51 52.37 51.10 50.40 51.32 50.69 51.16 48.42 49.30 49.58 51.45 53.47 53.61 53.93 54.58 54.06 53.57 53.60
50.97 50.82 54.11 53.73 53.05 52.19 48.86 51.16 48.73 51.63 53.54 52.84 54.02 55.12 56.14 54.67 54.67 53.22 54.65 54.66 53.41 54.76 54.60 56.32 51.04 52.74 49.83 51.40 51.42 49.67 50.86 51.26 51.02 51.07 50.45 50.30 49.64 52.84 53.58 54.35 53.31 53.10 52.83 52.16 52.63
54.60 55.31 53.60 50.26 53.40 51.73 51.35 50.58 49.86 52.60 54.85 55.43 56.12 56.23 55.15 56.47 58.72 59.19 59.24 58.50 56.92 53.97 53.77 54.09 53.08 50.92 46.48 50.36 49.84 48.02 49.89 50.56 50.81 51.75 50.88 47.71 50.20 52.75 51.91 51.73 51.94 52.08 52.51 51.69 53.08
MSLP
1019.92 1019.58 1019.17 1018.59 1018.00 1017.52 1017.08 1016.73 1016.22 1015.71 1015.45 1015.13 1014.63 1014.36 1013.70 1013.35 1012.83 1012.21 1009.60 1008.76 1008.93 1009.56 1010.00 1009.40 1008.99 1008.59 1008.31 1007.44 1007.30 1006.80 1004.60 1003.42 1003.85 1003.75 1003.66 1003.99 1003.28 1003.41 1003.77 1003.44 1004.90 1005.93 1006.86 1007.87 1008.31
1019.89 1019.22 1018.89 1018.51 1017.90 1017.30 1016.73 1016.43 1015.91 1015.44 1015.09 1014.73 1014.36 1013.97 1013.48 1013.22 1011.72 1009.63 1008.86 1009.12 1009.32 1009.61 1009.06 1008.40 1007.87 1007.92 1006.97 1006.68 1006.61 1005.94 1004.34 1004.28 1004.88 1004.87 1004.67 1004.87 1004.84 1004.64 1004.25 1004.19 1005.43 1005.97 1007.64 1008.37 1008.20
1019.73 1019.33 1018.84 1018.18 1017.65 1016.86 1016.36 1016.03 1015.60 1015.11 1014.68 1014.32 1014.05 1013.60 1013.21 1012.92 1010.43 1008.34 1008.88 1009.28 1009.45 1009.51 1008.63 1007.94 1007.46 1006.98 1006.10 1006.06 1005.99 1005.58 1004.43 1005.07 1005.30 1005.79 1005.48 1005.46 1005.81 1006.17 1005.22 1006.17 1007.40 1006.85 1007.98 1008.21 1008.14
1019.90 1019.40 1018.83 1018.36 1017.37 1016.71 1016.20 1015.58 1015.23 1014.69 1014.18 1013.91 1013.69 1013.20 1012.94 1011.91 1008.76 1008.29 1009.01 1009.30 1009.45 1008.87 1008.40 1007.52 1006.98 1006.19 1005.47 1005.39 1005.79 1005.35 1005.50 1005.62 1005.83 1005.78 1005.82 1006.28 1006.79 1007.44 1007.87 1008.77 1008.91 1008.64 1008.74 1008.92 1009.34
1019.81 1019.22 1018.76 1017.94 1016.86 1016.25 1015.70 1015.27 1014.88 1014.19 1013.67 1013.43 1013.25 1012.89 1012.58 1009.98 1007.75 1008.43 1009.05 1009.29 1008.87 1008.55 1007.65 1006.66 1006.13 1005.63 1005.07 1005.36 1005.78 1005.54 1005.77 1006.12 1006.41 1006.59 1006.80 1007.30 1007.71 1008.19 1008.92 1009.49 1009.72 1009.82 1009.98 1010.10 1010.38
1019.78 1019.20 1018.64 1017.73 1016.58 1015.99 1015.57 1014.82 1014.29 1013.64 1013.06 1012.92 1012.80 1012.80 1011.34 1008.28 1007.74 1008.14 1008.25 1008.59 1007.87 1007.82 1007.19 1006.73 1006.15 1006.01 1005.48 1005.60 1005.55 1005.87 1006.07 1006.32 1006.48 1006.83 1007.07 1007.50 1008.21 1008.46 1009.82 1010.18 1010.49 1010.70 1010.91 1011.24 1011.56
1019.48 1018.98 1018.34 1017.48 1016.27 1015.60 1014.87 1014.62 1013.85 1013.04 1012.47 1012.49 1012.34 1012.21 1010.03 1007.97 1007.64 1007.94 1008.03 1007.71 1007.71 1007.52 1006.93 1007.03 1006.77 1006.21 1005.91 1005.51 1006.10 1006.02 1005.86 1006.29 1006.56 1006.65 1007.00 1007.39 1008.34 1009.35 1010.08 1010.48 1011.36 1011.88 1011.91 1012.36 1012.53
1019.40 1018.75 1018.18 1017.36 1016.15 1015.63 1014.91 1014.29 1013.25 1012.39 1012.27 1012.23 1012.16 1011.45 1008.39 1007.75 1007.65 1007.75 1007.69 1007.54 1007.62 1007.64 1007.63 1007.38 1007.17 1006.29 1005.69 1006.01 1005.88 1005.33 1005.45 1005.09 1006.42 1006.87 1007.06 1007.06 1008.75 1010.20 1010.36 1010.85 1011.44 1012.05 1012.66 1013.11 1013.44
1019.27 1018.48 1017.80 1016.80 1015.72 1014.73 1014.22 1013.53 1012.51 1012.39 1012.39 1012.15 1011.97 1010.22 1007.64 1008.35 1007.47 1006.91 1007.22 1006.78 1007.05 1007.32 1007.39 1007.52 1006.98 1005.71 1005.80 1004.87 1004.59 1004.90 1003.86 1004.55 1006.05 1006.64 1006.71 1006.81 1008.89 1010.52 1010.72 1011.19 1011.59 1012.42 1013.14 1013.78 1014.22
1019.32 1018.64 1017.51 1016.40 1015.45 1014.80 1013.62 1012.79 1012.56 1012.60 1012.02 1011.92 1010.96 1009.72 1007.42 1006.86 1006.80 1006.89 1007.10 1007.03 1006.54 1006.64 1006.73 1006.63 1005.64 1004.69 1004.13 1003.60 1002.47 1003.18 1003.72 1004.57 1005.28 1006.49 1006.75 1007.38 1009.41 1010.63 1011.08 1011.40 1012.12 1013.10 1013.75 1014.05 1014.56
1019.33 1018.64 1017.81 1016.60 1015.68 1014.50 1013.19 1012.38 1012.54 1011.75 1010.73 1010.17 1009.19 1008.40 1007.26 1007.00 1006.92 1006.49 1006.59 1006.55 1006.32 1005.99 1005.11 1005.25 1004.21 1003.07 1003.54 1003.76 1003.48 1003.57 1003.83 1004.98 1006.52 1007.23 1007.32 1008.36 1009.62 1010.68 1011.24 1011.80 1012.42 1013.18 1014.08 1014.57 1015.18
1019.27 1018.68 1017.72 1016.68 1015.76 1014.49 1013.86 1013.04 1013.97 1013.95 1011.53 1009.56 1008.81 1008.22 1007.56 1007.25 1006.21 1006.10 1006.31 1005.80 1005.56 1004.60 1004.96 1004.64 1003.49 1004.11 1004.33 1004.13 1003.79 1003.76 1004.22 1005.52 1006.91 1007.55 1007.71 1008.69 1009.67 1010.67 1011.37 1012.10 1012.71 1013.30 1013.95 1014.62 1015.23
1019.08 1018.60 1017.79 1016.80 1015.46 1014.70 1014.51 1014.03 1014.13 1013.88 1011.65 1008.79 1007.98 1007.18 1006.46 1006.61 1005.67 1005.65 1005.84 1005.27 1004.84 1004.47 1004.03 1003.08 1003.98 1004.61 1004.26 1004.15 1003.96 1004.02 1004.10 1005.30 1005.79 1007.32 1007.69 1008.36 1009.24 1010.31 1011.39 1012.20 1012.94 1013.63 1014.12 1014.51 1014.97
1019.07 1018.61 1018.19 1016.82 1015.50 1015.27 1014.13 1014.26 1013.77 1013.78 1010.62 1008.37 1007.00 1006.14 1006.30 1005.86 1005.47 1005.57 1005.46 1005.17 1004.67 1004.12 1003.81 1003.59 1004.39 1004.19 1003.94 1003.98 1004.19 1004.02 1004.75 1005.14 1005.97 1006.26 1006.07 1007.74 1007.34 1009.28 1010.60 1011.78 1012.46 1013.25 1014.01 1014.60 1015.21
1019.05 1018.67 1018.23 1018.00 1016.54 1015.45 1014.37 1014.11 1013.62 1013.56 1009.18 1007.39 1006.26 1006.06 1005.63 1005.19 1005.06 1005.42 1005.51 1005.20 1004.34 1004.17 1004.23 1004.08 1004.07 1003.97 1003.79 1004.51 1004.54 1004.79 1005.26 1005.33 1005.67 1005.71 1006.28 1006.98 1007.27 1008.40 1009.94 1011.06 1011.96 1012.97 1013.83 1014.45 1015.03
1018.78 1018.55 1018.53 1017.01 1016.28 1015.29 1014.69 1013.85 1013.55 1011.39 1007.63 1006.51 1005.66 1005.37 1005.17 1005.09 1004.99 1005.10 1005.14 1005.30 1005.14 1004.41 1003.92 1004.11 1004.69 1004.33 1004.34 1004.92 1004.79 1005.35 1005.46 1005.68 1005.95 1005.60 1005.42 1006.56 1007.21 1007.37 1008.71 1010.17 1011.52 1012.23 1013.17 1014.10 1014.37
1018.44 1017.89 1017.98 1016.89 1015.04 1015.08 1014.41 1013.00 1011.31 1008.28 1007.03 1006.00 1005.14 1004.93 1004.57 1004.83 1004.91 1004.81 1004.84 1004.88 1004.30 1004.14 1003.90 1004.19 1004.30 1004.72 1004.89 1004.58 1005.18 1005.01 1004.96 1004.44 1004.65 1004.79 1004.97 1007.11 1007.47 1008.73 1009.98 1010.82 1011.31 1011.78 1012.80 1013.67 1014.01
1018.19 1017.29 1016.25 1015.76 1015.60 1015.21 1014.11 1011.70 1009.06 1007.18 1005.98 1005.67 1004.98 1004.72 1004.60 1004.74 1004.83 1004.94 1004.89 1004.88 1005.21 1004.47 1003.87 1003.78 1004.45 1004.75 1005.07 1004.61 1004.27 1004.83 1004.89 1004.60 1004.73 1004.62 1005.13 1007.26 1007.23 1009.44 1010.84 1011.56 1011.91 1012.62 1013.33 1013.89 1014.30
1017.80 1015.73 1015.01 1014.67 1015.01 1015.05 1012.82 1010.12 1007.53 1006.81 1006.39 1005.58 1005.07 1004.64 1004.72 1004.79 1004.70 1004.87 1005.11 1005.26 1005.84 1005.66 1004.59 1004.42 1004.74 1005.59 1005.66 1005.35 1005.40 1005.07 1005.09 1006.20 1005.94 1006.06 1006.16 1006.58 1008.65 1010.27 1011.13 1011.92 1012.57 1013.13 1013.89 1014.40 1014.78
1017.55 1015.53 1014.04 1014.41 1014.62 1014.02 1012.12 1009.56 1008.10 1007.35 1006.80 1006.15 1004.85 1004.57 1004.40 1004.67 1004.74 1004.65 1005.29 1006.56 1006.31 1006.42 1006.09 1005.45 1005.43 1005.81 1006.06 1005.91 1005.96 1005.75 1006.51 1006.20 1005.83 1006.10 1006.40 1006.81 1008.69 1009.62 1011.72 1012.53 1013.19 1013.66 1014.31 1014.99 1015.25
1017.55 1014.94 1014.08 1014.32 1014.36 1013.02 1010.90 1009.25 1008.55 1007.40 1007.08 1006.33 1005.18 1004.90 1004.44 1004.88 1004.73 1005.06 1006.05 1007.13 1007.19 1006.73 1006.42 1006.15 1006.01 1006.15 1006.23 1006.24 1006.04 1006.05 1006.07 1007.10 1007.44 1007.65 1007.72 1008.01 1009.81 1012.60 1013.26 1013.85 1014.11 1014.43 1014.84 1015.35 1015.86
1016.96 1014.08 1013.76 1014.13 1013.27 1012.11 1010.47 1009.93 1009.68 1007.62 1007.00 1006.30 1005.61 1005.05 1004.97 1005.10 1005.31 1005.66 1006.34 1007.27 1008.01 1007.74 1007.09 1007.82 1007.15 1006.35 1007.00 1007.93 1007.67 1007.56 1007.87 1007.97 1007.83 1008.00 1008.58 1009.90 1011.83 1013.88 1014.36 1014.64 1014.87 1014.94 1015.44 1015.89 1016.21
1015.73 1013.97 1013.53 1013.67 1011.88 1011.04 1010.48 1009.95 1009.14 1007.66 1007.04 1006.29 1005.54 1005.40 1005.48 1005.40 1005.85 1006.16 1007.07 1008.23 1008.37 1008.20 1008.34 1008.47 1008.39 1007.71 1008.17 1008.43 1008.37 1008.61 1009.11 1009.37 1009.52 1009.61 1009.68 1010.47 1012.22 1014.53 1015.09 1015.22 1015.49 1015.77 1016.17 1016.27 1016.67
1016.01 1013.55 1012.77 1012.69 1012.34 1011.77 1010.50 1009.57 1008.49 1007.65 1006.99 1006.39 1005.94 1005.60 1005.69 1005.82 1005.77 1006.28 1007.29 1008.26 1008.83 1009.18 1009.69 1009.37 1009.28 1008.65 1008.06 1008.64 1008.80 1009.66 1009.89 1010.08 1009.94 1009.80 1010.40 1011.97 1012.84 1014.37 1015.11 1015.41 1015.74 1016.26 1016.69 1016.78 1016.94
1015.84 1013.73 1013.74 1011.78 1011.60 1011.47 1011.15 1010.12 1008.55 1007.32 1006.79 1006.47 1005.90 1005.37 1005.34 1005.59 1005.83 1006.32 1007.11 1008.02 1009.04 1009.83 1009.90 1009.71 1009.87 1009.62 1009.78 1009.90 1010.25 1010.69 1010.96 1011.05 1011.24 1011.71 1011.87 1013.05 1013.64 1014.85 1015.53 1016.04 1016.44 1016.66 1017.07 1017.25 1017.42
1015.27 1014.14 1013.79 1012.69 1012.28 1011.66 1011.19 1009.72 1008.87 1007.92 1007.26 1006.40 1005.91 1005.73 1005.58 1005.52 1005.47 1006.17 1006.72 1007.37 1008.29 1009.57 1009.87 1010.43 1010.48 1010.34 1010.59 1010.84 1011.02 1011.56 1012.00 1012.32 1012.63 1012.90 1013.31 1013.83 1014.42 1015.95 1016.38 1016.71 1016.97 1017.27 1017.75 1018.08 1018.23
1016.10 1015.55 1014.34 1012.31 1011.69 1011.29 1010.11 1009.82 1008.90 1008.44 1007.79 1007.10 1006.33 1005.92 1006.50 1006.46 1006.33 1007.26 1007.90 1008.59 1008.94 1009.26 1009.96 1010.21 1010.60 1010.33 1010.78 1011.26 1011.53 1011.93 1013.18 1013.36 1013.61 1014.11 1014.39 1014.40 1015.88 1016.47 1016.80 1017.31 1017.62 1018.33 1018.83 1019.12 1019.20
Wind_Speed
15 14 14 15 15 17 18 19 19 18 17 17 15 13 12 12 16 9 6 5 5 10 7 10 10 9 8 5 4 3 6 5 8 8 10 14 12 12 6 7 15 11 16 13 9
15 16 16 15 16 17 18 20 19 19 18 16 14 13 11 10 10 7 7 6 7 9 11 13 11 10 7 5 5 8 5 8 7 6 7 11 17 11 8 10 13 12 16 11 8
16 15 17 18 18 18 18 20 20 20 18 15 14 12 11 12 9 7 7 7 6 7 8 5 4 10 6 5 5 3 6 4 10 6 5 4 12 17 12 18 18 13 14 12 12
16 17 17 19 19 19 19 21 21 21 18 15 14 11 10 7 1 6 6 6 6 8 9 7 8 10 6 6 3 6 4 8 8 6 4 8 7 18 19 15 13 16 16 16 15
15 18 19 20 20 21 22 22 22 20 17 15 12 8 7 8 8 9 8 7 9 7 10 6 9 5 6 3 3 6 4 4 7 12 14 13 19 16 17 14 15 16 18 17 16
14 17 19 22 21 22 22 23 22 19 15 11 8 6 6 5 5 9 9 8 7 8 3 4 0 2 2 1 5 3 2 8 9 6 12 17 16 7 13 13 17 18 20 20 21
16 17 20 22 23 24 24 24 21 16 11 6 5 6 4 7 5 8 9 5 3 5 4 0 2 6 0 6 4 4 11 12 11 11 10 3 18 15 11 14 18 17 18 20 17
17 18 20 21 23 24 25 23 18 9 1 6 6 8 1 4 5 7 8 7 5 4 5 4 5 5 6 5 6 8 11 12 9 9 2 9 13 10 12 12 17 17 17 18 20
17 20 21 23 25 28 25 22 8 2 5 7 7 4 8 5 7 6 8 5 6 4 4 3 7 4 6 11 9 11 11 7 10 4 3 4 14 8 11 12 15 16 16 16 18
17 19 23 26 26 28 27 8 2 4 5 5 5 5 6 7 5 4 5 6 5 6 7 9 8 9 9 12 5 9 8 7 10 4 6 13 15 10 9 13 15 15 14 15 16
16 19 21 25 26 29 14 4 5 6 3 6 3 4 1 3 3 8 6 8 7 8 10 5 10 5 8 4 5 3 8 12 12 9 9 13 13 11 10 13 14 14 14 14 13
16 18 22 24 26 22 10 5 5 6 9 4 6 7 7 5 5 6 6 8 7 8 6 8 3 6 5 4 8 8 12 13 8 6 8 13 12 10 9 10 12 12 12 11 10
16 17 21 26 27 5 6 7 7 3 8 1 4 4 3 7 4 9 10 3 6 7 9 1 10 7 7 9 8 6 2 10 11 9 8 10 11 11 10 10 11 10 9 8 7
14 16 17 30 3 8 2 6 9 4 6 7 7 5 6 4 6 1 5 4 6 3 6 7 6 4 5 4 7 9 2 3 11 12 5 12 1 11 13 9 6 9 8 7 5
14 14 13 12 9 7 6 10 5 4 6 6 7 5 4 6 9 5 2 4 3 5 7 8 5 6 5 6 5 7 2 4 8 8 6 12 10 13 11 10 10 8 8 6 5
16 13 12 2 5 7 10 12 4 9 4 6 8 10 12 7 5 7 4 4 2 4 1 8 2 2 8 5 3 9 8 6 4 5 11 6 8 13 8 5 8 8 9 7 5
18 17 12 5 5 7 10 5 7 6 3 7 8 12 14 11 7 8 8 8 6 10 10 8 6 6 2 10 7 6 8 8 7 7 4 3 8 12 7 5 3 4 10 6 2
18 22 3 6 6 8 5 6 4 3 1 3 8 12 11 11 8 8 9 9 3 7 9 10 12 2 2 7 5 5 7 8 5 3 5 5 2 10 6 5 4 7 6 4 4
23 5 4 1 1 2 6 6 3 2 2 4 13 14 11 7 7 7 3 5 4 3 5 7 6 6 7 0 6 6 2 4 7 6 9 5 7 7 6 7 5 7 5 7 10
9 7 3 4 3 3 5 4 3 1 3 6 10 7 13 10 11 7 3 3 3 5 3 3 6 1 5 2 8 5 5 6 3 6 9 6 3 9 8 7 6 6 7 8 11
6 6 7 2 3 4 6 3 5 4 4 6 5 5 10 11 8 5 3 4 2 3 3 1 5 8 7 5 8 5 4 2 5 5 7 6 9 6 7 7 6 7 8 12 10
4 5 5 2 5 2 7 1 5 5 4 4 3 5 10 10 6 5 7 4 5 3 3 4 4 1 9 6 5 10 6 4 6 3 1 7 7 6 6 6 6 7 10 10 13
4 4 3 3 5 6 3 5 6 4 2 3 4 1 4 8 6 9 6 4 1 2 2 1 2 6 8 8 4 6 6 3 2 5 6 8 8 4 3 3 6 9 11 11 10
5 4 5 5 1 6 4 5 5 5 3 1 3 5 9 5 5 11 11 6 7 8 3 2 3 5 6 9 7 7 6 4 4 5 6 9 4 4 1 5 7 8 10 11 12
4 2 4 3 7 6 3 3 7 3 2 2 4 7 9 6 12 9 12 14 7 4 2 3 6 10 12 13 12 10 10 11 12 8 8 7 7 8 8 9 9 11 11 13 14
4 4 5 4 5 7 5 5 3 1 3 4 5 9 7 11 4 14 14 7 5 4 3 1 6 11 10 8 10 12 10 9 8 6 5 2 8 6 5 10 12 13 13 15 15
2 2 5 4 5 5 4 3 1 6 3 2 10 13 14 12 16 14 13 9 7 4 6 4 8 8 7 8 3 9 8 7 5 7 8 8 9 9 10 11 13 12 13 16 15
Wind_Direction
347 343 335 333 332 326 324 317 317 314 312 311 314 318 326 324 293 210 200 82 113 139 212 153 181 180 203 186 234 272 241 84 41 7 18 23 10 21 3 55 57 61 40 46 76
340 338 332 330 326 324 324 314 315 310 311 309 310 317 320 319 268 210 91 101 125 154 192 182 174 180 191 178 194 255 275 53 31 18 7 48 34 359 349 89 23 356 79 87 97
337 336 327 329 324 326 323 314 311 310 307 308 306 312 309 298 250 82 126 146 158 186 256 222 188 212 189 188 167 144 8 29 46 13 340 59 50 27 358 50 17 57 86 92 88
332 331 326 321 324 326 319 314 311 308 306 306 300 304 301 249 155 86 130 171 200 220 220 192 206 198 178 188 138 249 60 13 24 56 79 64 72 55 53 53 52 67 73 74 77
330 328 323 319 328 326 320 314 307 305 303 301 290 292 265 219 89 116 140 166 186 206 234 193 186 200 198 137 202 240 55 86 100 94 88 92 73 71 67 65 70 73 71 72 71
331 327 323 320 329 325 316 318 307 304 304 292 271 271 249 196 95 141 157 174 206 221 200 240 75 334 122 279 275 82 33 127 139 111 102 89 73 95 66 75 71 69 72 70 64
331 330 325 324 330 322 327 313 305 304 306 270 206 248 257 67 128 157 174 198 184 250 254 195 296 258 255 170 129 155 130 124 138 142 136 124 68 68 81 82 79 70 76 73 71
329 327 324 325 329 322 320 309 308 316 63 144 183 248 296 129 141 188 186 205 216 246 272 284 239 287 246 111 179 189 184 180 142 188 75 240 92 73 87 90 91 89 84 76 62
329 327 326 329 328 325 323 313 322 11 153 136 227 264 131 133 198 162 196 222 158 195 206 210 240 266 178 210 176 188 188 193 150 203 146 269 118 106 98 99 93 89 80 75 77
328 328 328 330 333 323 321 297 179 209 193 234 258 241 191 133 123 151 186 237 225 183 184 218 223 221 208 210 226 149 144 159 124 98 191 121 111 106 111 106 94 85 83 79 72
331 330 330 328 329 323 332 235 244 177 268 307 12 297 40 347 202 191 179 188 213 227 223 191 228 196 46 19 56 135 148 115 117 80 103 118 122 120 120 110 107 102 90 83 74
331 333 331 330 327 317 288 34 45 330 303 240 262 268 263 275 176 169 191 210 208 207 189 204 127 76 105 122 138 142 133 116 112 147 144 143 127 131 128 110 104 103 100 100 94
331 334 335 329 323 316 332 48 332 253 254 202 230 244 179 208 152 164 200 191 232 201 201 235 90 128 145 138 146 151 136 178 128 155 152 154 156 152 139 135 122 106 107 108 97
330 331 342 327 300 350 350 336 325 201 259 134 181 165 181 204 159 142 215 285 204 149 186 97 114 179 172 138 268 175 206 183 153 193 212 215 309 181 163 160 151 151 130 129 125
324 329 341 323 321 295 2 329 325 217 200 142 145 97 181 222 129 145 151 218 235 154 242 97 139 164 119 32 278 65 154 205 193 236 235 179 259 111 162 169 147 154 143 136 160
316 322 343 228 264 264 312 307 239 233 139 147 150 172 173 172 148 131 183 217 331 215 50 99 119 327 70 64 73 130 127 143 226 230 233 103 283 137 154 145 138 158 137 150 151
314 312 311 296 309 332 309 250 237 266 144 152 167 180 170 155 139 186 179 187 229 188 167 161 130 112 206 137 152 231 202 210 206 204 29 111 251 51 85 80 14 124 126 144 117
311 308 162 262 273 297 242 229 264 78 164 117 166 167 164 152 135 139 170 170 105 269 161 189 168 196 345 337 23 39 323 2 309 313 52 145 304 87 60 55 88 75 88 67 36
305 297 272 252 252 232 260 228 316 123 28 182 166 164 143 148 159 153 102 76 50 1 270 204 102 116 44 200 306 120 303 15 294 195 261 76 118 145 87 69 70 67 49 38 31
316 301 253 358 174 265 257 278 274 309 318 232 167 198 160 158 170 188 148 54 79 26 309 84 137 154 124 240 65 339 88 249 232 306 314 126 260 56 25 19 29 39 39 33 24
270 289 83 113 247 239 247 263 287 298 266 233 165 167 151 153 186 143 106 95 356 55 1 10 282 137 207 5 4 173 179 38 289 311 326 306 77 22 39 40 41 33 26 32 7
283 245 85 218 248 220 246 276 336 287 235 244 215 129 159 151 155 131 127 41 352 326 29 46 334 88 74 94 38 52 37 352 319 29 81 280 83 42 44 52 24 17 29 9 360
262 288 126 253 255 216 231 271 258 264 233 219 147 120 171 147 128 124 119 63 68 31 40 114 39 163 160 169 131 53 44 60 348 258 59 308 77 69 54 22 26 11 8 359 355
270 244 173 215 296 289 290 255 260 226 256 305 114 133 148 131 130 151 131 91 75 83 22 50 61 342 3 66 70 92 56 38 310 300 348 58 53 102 11 343 2 4 354 348 346
228 151 1 184 208 252 268 302 267 187 203 227 154 205 163 138 131 135 128 129 103 150 99 52 98 99 90 95 95 82 67 58 61 40 15 46 33 36 19 358 348 344 354 338 349
277 265 172 277 269 244 183 222 279 355 329 147 202 145 159 152 187 159 142 136 108 129 92 117 132 121 109 122 106 86 69 75 64 29 76 321 82 27 20 350 350 343 352 349 346
136 238 280 133 198 234 203 258 57 334 79 346 129 111 95 80 90 81 73 69 87 135 118 148 150 192 123 143 152 118 41 48 84 48 346 19 23 3 359 348 342 10 356 348 352